Hourly Data Report for July 14, 2020

OTTAWA INTL A
ONTARIO
Current Station Operator: NAVCAN

45°19'00.000" N
75°40'00.000" W
114.90 m
6106001
71628
YOW

Download Data

Hourly Data (July 2020)
Hourly Data Report for July 14, 2020
TIME Temp Definition
°C
Dew Point Definition
°C
Rel Hum Definition
%
Wind Dir Definition
10's deg

Wind Spd Definition
km/h
Visibility Definition
km
Stn Press Definition
kPa
Hmdx Definition


Wind Chill Definition


Weather Definition


00:00 20.0 16.6 81 29 10 24.1 99.86 25   LegendNANA
01:00 19.3 16.6 84 32 13 24.1 99.85     Mainly Clear
02:00 18.6 16.4 87 31 11 24.1 99.87     LegendNANA
03:00 17.5 16.1 92 28 8 24.1 99.93     LegendNANA
04:00 17.5 16.4 93 30 8 24.1 99.98     Mainly Clear
05:00 16.9 16.3 96 24 7 24.1 100.04     LegendNANA
06:00 19.8 17.0 83 34 9 24.1 100.10     LegendNANA
07:00 21.5 17.2 76 35 7 24.1 100.14 27   Clear
08:00 23.3 17.3 68 4 9 24.1 100.15 29   LegendNANA
09:00 22.8 17.0 69 6 8 24.1 100.18 28   LegendNANA
10:00 25.7 17.6 61 36 11 24.1 100.22 31   Mostly Cloudy
11:00 25.4 17.0 59 10 10 24.1 100.24 31   LegendNANA
12:00 25.7 15.6 53 36 15 24.1 100.29 30   LegendNANA
13:00 28.6 15.4 44 1 15 24.1 100.21 33   Mainly Clear
14:00 27.1 16.9 53 3 19 24.1 100.26 32   LegendNANA
15:00 27.3 16.0 49 4 22 24.1 100.28 32   LegendNANA
16:00 26.1 16.4 54 4 17 24.1 100.36 31   Mostly Cloudy
17:00 25.6 16.7 57 9 15 24.1 100.39 31   LegendNANA
18:00 24.7 16.9 61 9 10 24.1 100.43 30   LegendNANA
19:00 23.9 16.1 61 9 12 24.1 100.47 29   Mostly Cloudy
20:00 21.3 16.1 72 8 8 24.1 100.50 26   LegendNANA
21:00 20.2 16.0 76 8 7 24.1 100.58 25   LegendNANA
22:00 19.9 15.3 74 8 10 24.1 100.57     Clear
23:00 19.2 15.0 76 8 12 24.1 100.63     LegendNANA

Notes on Data Quality.

Legend

  • E = Estimated
  • M = Missing
  • NA = Not Available*
  • [empty] = Indicates an unobserved value
Date modified: